Home > Weather > Hohhot > Past weeks

Flag for China Weather for the Past 2 Weeks in Hohhot, Inner Mongolia, China

Now
50 °F

Passing clouds.


Feels Like: 46 °F
Forecast: 44 / 58 °F
Wind: 10 mph from Northwest

Location: Hohhot Airport

Current Time: May 2, 2016 at 3:57:05 AM

Latest Report: May 2, 2016 at 3:00 AM


Visibility: N/A

Pressure: 29.95 "Hg (26.38 "Hg at 1053m altitude)

Humidity: 43%

Dew Point: 28 °F

Location of HohhotLocation

Historic Weather in Hohhot — Graph

°F

Hohhot Temperature Yesterday

Maximum temperature yesterday: 72 °F (at 11:00 AM)
Minimum temperature yesterday: 54 °F (at 5:00 AM)
Average temperature yesterday: 62 °F

High & Low Weather Summary for the Past Weeks

 TemperatureHumidityPressure
High82 °F (Apr 30, 2:00 PM)88% (Apr 27, 1:00 AM)30.09 "Hg (Apr 27, 1:00 AM)
Low21 °F (Apr 18, 6:00 AM)5% (Apr 23, 11:00 AM)29.56 "Hg (Apr 30, 4:00 PM)
Average57 °F30%29.87 "Hg
* Reported Apr 17 2:00 AM — May 2 2:00 AM, Hohhot, Weather by CustomWeather, © 2016

Note: Actual official high and low records may vary slightly from our data, if they occured in-between our weather recording intervals... More about our weather records

Advertising

Hohhot Weather History for the Previous 24 Hours

Scroll right to see more
 ConditionsComfort  
Time TempWeatherWind HumidityBarometerVisibility
2:00 AM
Mon, May 2
52 °FPassing clouds.13 mph44%29.92 "HgN/A
1:00 AM52 °FPassing clouds.17 mph41%29.95 "HgN/A
12:00 AM54 °FPassing clouds.10 mph38%29.92 "HgN/A
11:00 PM
Sun, May 1
55 °FPassing clouds.8 mph28%29.92 "HgN/A
10:00 PM57 °FPassing clouds.6 mph21%29.86 "HgN/A
9:00 PM57 °FPassing clouds.10 mph25%29.83 "HgN/A
8:00 PM55 °FPassing clouds.6 mph33%29.80 "HgN/A
7:00 PM54 °FScattered clouds.15 mph41%29.77 "HgN/A
6:00 PM54 °FSprinkles. Scattered clouds.15 mph58%29.74 "HgN/A
5:00 PM63 °FScattered clouds.22 mph37%29.71 "HgN/A
4:00 PM70 °FPassing clouds.17 mph31%29.68 "HgN/A
3:00 PM72 °FPassing clouds.15 mph29%29.68 "HgN/A
2:00 PM70 °FScattered clouds.20 mph25%29.68 "Hg4 mi
1:00 PM70 °FScattered clouds.17 mph25%29.65 "HgN/A
12:00 PM72 °FScattered clouds.20 mph23%29.68 "HgN/A
11:00 AM72 °FScattered clouds.17 mph27%29.68 "HgN/A
10:00 AM70 °FScattered clouds.15 mph27%29.68 "HgN/A
9:00 AM68 °FScattered clouds.1 mph28%29.65 "HgN/A
8:00 AM66 °FScattered clouds.1 mph35%29.65 "HgN/A
7:00 AM57 °FScattered clouds.3 mph41%29.65 "HgN/A
6:00 AM55 °FPassing clouds.3 mph44%29.62 "HgN/A
5:00 AM54 °FPassing clouds.3 mph44%29.62 "HgN/A
4:00 AM55 °FPassing clouds.3 mph41%29.59 "HgN/A
3:00 AM61 °FPassing clouds.1 mph31%29.62 "HgN/A
Weather by CustomWeather, © 2016

See weather overviewHow to use our weather pages